GW1707 Weather Reports


Display with metric or nautical units.
time (UTC)temp
F
wind
direction
speed
MPH
gust
MPH
rain 1hr
in
rain 24hr
in
rain mn
in
humidity
%
barometer
mb
20260507150100 50 0 0.0 0.0 0.00 0.00 0.00 88 1031.8
20260507144615 50 0 0.0 0.0 0.00 0.00 0.00 87 1031.7
20260507143058 50 0 0.0 0.0 0.00 0.00 0.00 87 1031.9
20260507141628 49 0 0.0 0.0 0.00 0.00 0.00 86 1031.9
20260507140057 49 0 0.0 0.0 0.00 0.00 0.00 86 1031.8
20260507134557 49 0 0.0 0.0 0.00 0.00 0.00 86 1031.8
20260507133055 49 0 0.0 0.0 0.00 0.00 0.00 86 1031.9
20260507131552 48 0 0.0 0.0 0.00 0.00 0.00 86 1031.8
20260507130103 48 0 0.0 0.0 0.00 0.00 0.00 87 1031.8
20260507124553 47 0 0.0 0.0 0.00 0.00 0.00 87 1032.0
20260507123056 47 0 0.0 0.0 0.00 0.00 0.00 88 1032.1
20260507121554 48 0 0.0 0.0 0.00 0.00 0.00 88 1032.1
20260507120055 48 0 0.0 0.0 0.00 0.00 0.00 88 1032.1
20260507114557 48 0 0.0 0.0 0.00 0.00 0.00 88 1032.2
20260507113051 48 0 0.0 0.0 0.00 0.00 0.00 88 1032.1
20260507111553 48 0 0.0 0.0 0.00 0.00 0.00 87 1032.0
20260507110054 48 0 0.0 0.0 0.00 0.00 0.00 86 1031.9
20260507104556 48 0 0.0 0.0 0.00 0.00 0.00 85 1032.0
20260507103052 49 0 0.0 0.0 0.00 0.00 0.00 84 1031.9
20260507101555 49 0 0.0 0.0 0.00 0.00 0.00 84 1031.9
20260507100053 48 0 0.0 0.0 0.00 0.00 0.00 83 1032.0
20260507094558 48 0 0.0 0.0 0.00 0.00 0.00 84 1032.1
20260507093059 48 0 0.0 0.0 0.00 0.00 0.00 84 1032.1
20260507091557 48 0 0.0 0.0 0.00 0.01 0.00 85 1032.0
20260507090056 48 0 0.0 0.0 0.00 0.01 0.00 85 1032.0
20260507084556 48 0 0.0 0.0 0.00 0.01 0.00 84 1031.9
20260507083100 48 0 0.0 0.0 0.00 0.01 0.00 84 1031.8
20260507081604 49 0 0.0 0.0 0.00 0.02 0.00 83 1031.4
20260507080109 49 0 0.0 0.0 0.00 0.02 0.00 82 1031.5
20260507074603 49 0 0.0 0.0 0.00 0.02 0.00 82 1031.5
20260507073104 50 0 0.0 0.0 0.00 0.02 0.00 82 1031.5
20260507071559 50 0 0.0 0.0 0.00 0.02 0.00 80 1031.6
20260507070100 51 0 0.0 0.0 0.00 0.02 0.00 78 1031.3
20260507064557 51 0 0.0 0.0 0.00 0.02 0.00 78 1031.4
20260507063054 51 0 0.0 0.0 0.00 0.02 0.00 77 1031.3
20260507061551 52 0 0.0 0.0 0.00 0.02 0.00 76 1031.2
20260507060057 51 0 0.0 0.0 0.00 0.02 0.00 77 1031.1
20260507054557 51 0 0.0 0.0 0.00 0.02 0.00 78 1031.3
20260507053056 52 0 0.0 0.0 0.00 0.02 0.00 80 1031.2
20260507051554 52 0 0.0 0.0 0.00 0.02 0.00 80 1031.3
20260507050054 51 0 0.0 0.0 0.00 0.02 0.00 81 1031.4
20260507044600 52 0 0.0 0.0 0.00 0.02 0.00 79 1031.5
20260507043057 52 0 0.0 0.0 0.00 0.02 0.00 80 1031.5
20260507041552 51 0 0.0 0.0 0.00 0.03 0.00 80 1031.6
20260507040055 52 0 0.0 0.0 0.00 0.03 0.00 78 1031.5
20260507034603 52 0 0.0 0.0 0.00 0.03 0.00 71 1031.5
20260507033054 52 0 0.0 0.0 0.00 0.03 0.00 70 1031.5
20260507031553 52 0 0.0 0.0 0.00 0.08 0.00 71 1031.5
20260507030101 54 0 0.0 0.0 0.00 0.08 0.00 69 1031.5
20260507024559 53 0 0.0 0.0 0.00 0.08 0.00 74 1031.6
20260507023055 51 0 0.0 0.0 0.00 0.08 0.00 77 1031.9
20260507021556 51 0 0.0 0.0 0.00 0.08 0.00 81 1032.0
20260507020053 50 0 0.0 0.0 0.00 0.08 0.00 80 1032.2
20260507014555 50 0 0.0 0.0 0.00 0.08 0.00 79 1032.2
20260507013100 51 0 0.0 0.0 0.00 0.08 0.00 75 1032.0
20260507011556 51 0 0.0 0.0 0.00 0.08 0.00 74 1031.8
20260507010054 52 0 0.0 0.0 0.00 0.08 0.00 74 1031.6
20260507004550 50 0 0.0 0.0 0.00 0.08 0.00 73 1031.5
20260507003056 50 0 0.0 0.0 0.00 0.08 0.00 75 1031.5
20260507001557 49 0 0.0 0.0 0.00 0.08 0.00 74 1031.5
20260507000058 49 0 0.0 0.0 0.00 0.08 0.00 79 1031.6
20260506234555 48 0 0.0 0.0 0.00 0.08 0.00 87 1031.5
20260506233052 47 0 0.0 0.0 0.00 0.08 0.00 88 1031.3
20260506231556 46 0 0.0 0.0 0.00 0.08 0.00 89 1031.2
20260506230056 45 0 0.0 0.0 0.00 0.08 0.00 89 1031.2
20260506224603 45 0 0.0 0.0 0.00 0.08 0.00 89 1031.0
20260506223054 45 0 0.0 0.0 0.00 0.08 0.00 89 1030.7
20260506221555 45 0 0.0 0.0 0.00 0.08 0.00 89 1030.5
20260506220057 44 0 0.0 0.0 0.00 0.08 0.00 89 1030.3
20260506214608 44 0 0.0 0.0 0.00 0.08 0.00 89 1030.2
20260506213053 44 0 0.0 0.0 0.00 0.08 0.00 89 1030.0
20260506211554 45 0 0.0 0.0 0.00 0.08 0.00 89 1029.7
20260506210054 45 0 0.0 0.0 0.00 0.08 0.00 89 1029.5
20260506204559 45 0 0.0 0.0 0.00 0.08 0.00 89 1029.3
20260506203052 45 0 0.0 0.0 0.00 0.08 0.00 89 1029.1
20260506201552 45 0 0.0 0.0 0.00 0.08 0.00 89 1029.0
20260506200054 45 0 0.0 0.0 0.00 0.08 0.00 89 1029.0
20260506194604 45 0 0.0 0.0 0.00 0.08 0.00 89 1029.0
20260506193058 45 0 0.0 0.0 0.00 0.08 0.00 90 1028.7
20260506191554 45 0 0.0 0.0 0.00 0.08 0.00 89 1028.7
20260506190053 45 0 0.0 0.0 0.00 0.08 0.00 89 1028.7
20260506184556 46 0 0.0 0.0 0.00 0.08 0.00 88 1028.5
20260506183105 45 0 0.0 0.0 0.00 0.08 0.00 87 1028.3
20260506181559 46 0 0.0 0.0 0.00 0.08 0.00 86 1028.3
20260506180055 46 0 0.0 0.0 0.00 0.08 0.00 86 1028.3
20260506174553 46 0 0.0 0.0 0.00 0.08 0.00 86 1028.1
20260506173055 46 0 0.0 0.0 0.00 0.08 0.00 86 1028.1
20260506171557 46 0 0.0 0.0 0.00 0.08 0.00 85 1028.4
20260506170056 47 0 0.0 0.0 0.00 0.08 0.00 83 1028.3
20260506164600 47 0 0.0 0.0 0.00 0.08 0.00 81 1028.3
20260506163104 46 0 0.0 0.0 0.00 0.08 0.00 78 1028.3
20260506161603 46 0 0.0 0.0 0.00 0.08 0.00 77 1028.2
20260506160052 46 0 0.0 0.0 0.00 0.08 0.00 79 1028.3
20260506154611 46 0 0.0 0.0 0.00 0.08 0.00 80 1028.3
20260506153055 46 0 0.0 0.0 0.00 0.08 0.00 81 1028.2
20260506151555 46 0 0.0 0.0 0.00 0.08 0.00 81 1028.1